Oshkosh, WI

4:47 PM CST on November 21, 2019 (GMT -0600)
Wittman Regional

Weather History for KOSH - October, 2019

Change the Weather History Date:

Tuesday, October 22, 2019

  Actual Average Record
Temperature  
Mean Temperature 46 °F -  
Max Temperature 50 °F 55 °F 80 °F (1953)
Min Temperature 42 °F 37 °F 21 °F (1982)
Degree Days  
Heating Degree Days 19    
Moisture  
Dew Point 39 °F    
Average Humidity 80    
Maximum Humidity 93    
Minimum Humidity 71    
Precipitation  
Precipitation 0.05 in - - ()
Sea Level Pressure  
Sea Level Pressure 29.42 in    
Wind  
Wind Speed 14 mph ()    
Max Wind Speed 26 mph    
Max Gust Speed 45 mph    
Visibility 8.7 miles    
Events Rain    
Averages and records for this station are not official NWS values.
T = Trace of Precipitation, MM = Missing Value Source: Averaged Metar Reports

Daily Weather History Graph

Daily Weather History Graph

Search for Another Location

Airport or City:

Astronomy

Oct. 22, 2019 Rise Set
Actual Time 7:17 AM CDT 5:59 PM CDT
Civil Twilight 6:47 AM CDT 6:28 PM CDT
Nautical Twilight 6:14 AM CDT 7:02 PM CDT
Astronomical Twilight 5:40 AM CDT 7:35 PM CDT
Moon 12:09 AM CDT (10/22) 3:24 PM CDT (10/22)
Length of Visible Light 11h 40m
Length of Day
10h 42m
Last Quarter, 37% of the Moon is Illuminated
Oct 22
Last Quarter
Oct 27
New
Nov 4
First Quarter
Nov 12
Full
Nov 19
Last Quarter

Hourly Weather History & Observations

Time (CDT) Temp. Windchill Dew Point Humidity Pressure Visibility Wind Dir Wind Speed Gust Speed Precip Events Conditions
12:53 AM 50.0 °F - 41.0 °F 71% 29.33 in 10.0 mi South 17.3 mph 27.6 mph N/A   Overcast
1:53 AM 50.0 °F - 41.0 °F 71% 29.29 in 10.0 mi South 20.7 mph 27.6 mph N/A   Overcast
2:53 AM 48.0 °F - 43.0 °F 83% 29.28 in 10.0 mi South 20.7 mph 28.8 mph 0.00 in   Overcast
3:53 AM 46.0 °F 39.3 °F 39.9 °F 79% 29.26 in 10.0 mi South 16.1 mph 26.5 mph N/A   Overcast
4:53 AM 46.9 °F - 42.1 °F 83% 29.23 in 10.0 mi South 26.5 mph 44.9 mph 0.00 in Rain Light Rain
5:15 AM 46.0 °F 38.8 °F 41.0 °F 83% 29.23 in 10.0 mi SSW 18.4 mph 32.2 mph 0.02 in Rain Light Rain
5:25 AM 46.0 °F 39.0 °F 41.0 °F 83% 29.23 in 7.0 mi SSW 17.3 mph 26.5 mph 0.02 in Rain Light Rain
5:53 AM 46.0 °F 39.0 °F 42.1 °F 86% 29.23 in 10.0 mi SSW 17.3 mph 32.2 mph 0.03 in   Overcast
6:53 AM 45.0 °F 37.9 °F 39.0 °F 80% 29.24 in 10.0 mi SW 16.1 mph 34.5 mph 0.00 in   Overcast
7:53 AM 44.1 °F 36.8 °F 39.9 °F 85% 29.27 in 4.0 mi SSW 16.1 mph 29.9 mph N/A   Overcast
8:53 AM 44.1 °F 37.4 °F 41.0 °F 89% 29.30 in 2.0 mi SSW 13.8 mph 24.2 mph 0.00 in Rain Light Rain
9:11 AM 44.1 °F 37.7 °F 42.1 °F 93% 29.30 in 2.5 mi SSW 12.7 mph 24.2 mph 0.01 in   Overcast
9:24 AM 44.1 °F 38.1 °F 42.1 °F 93% 29.31 in 2.0 mi SSW 11.5 mph 23.0 mph 0.01 in   Overcast
9:40 AM 45.0 °F 38.5 °F 42.1 °F 90% 29.31 in 3.0 mi SSW 13.8 mph 28.8 mph 0.01 in   Overcast
9:53 AM 45.0 °F 38.2 °F 42.1 °F 90% 29.33 in 2.5 mi SSW 15.0 mph 27.6 mph 0.01 in Rain Light Rain
10:07 AM 45.0 °F 39.3 °F 42.1 °F 90% 29.32 in 6.0 mi SW 11.5 mph 29.9 mph 0.00 in   Overcast
10:25 AM 45.0 °F 39.7 °F 41.0 °F 86% 29.33 in 10.0 mi SW 10.4 mph 29.9 mph 0.00 in   Overcast
10:53 AM 45.0 °F 38.5 °F 39.9 °F 82% 29.36 in 10.0 mi WSW 13.8 mph 27.6 mph 0.00 in   Overcast
11:53 AM 46.9 °F - 41.0 °F 80% 29.38 in 10.0 mi WSW 11.5 mph 25.3 mph N/A   Overcast
12:53 PM 46.9 °F - 39.9 °F 77% 29.40 in 10.0 mi WSW 13.8 mph 25.3 mph N/A   Overcast
1:53 PM 45.0 °F 38.5 °F 39.9 °F 82% 29.43 in 10.0 mi WSW 13.8 mph 26.5 mph 0.01 in   Overcast
2:53 PM 45.0 °F 38.2 °F 39.0 °F 80% 29.46 in 10.0 mi WSW 15.0 mph 27.6 mph 0.00 in   Overcast
3:53 PM 45.0 °F 38.5 °F 37.9 °F 76% 29.49 in 10.0 mi WSW 13.8 mph 25.3 mph N/A   Overcast
4:30 PM 45.0 °F 39.3 °F 37.0 °F 74% 29.49 in 10.0 mi WSW 11.5 mph 24.2 mph N/A   Overcast
4:44 PM 45.0 °F 37.9 °F 37.0 °F 74% 29.50 in 10.0 mi West 16.1 mph 29.9 mph N/A   Overcast
4:53 PM 45.0 °F 38.9 °F 37.0 °F 74% 29.52 in 10.0 mi West 12.7 mph 32.2 mph N/A   Overcast
5:13 PM 45.0 °F 39.7 °F 36.0 °F 71% 29.51 in 10.0 mi West 10.4 mph 26.5 mph N/A   Overcast
5:35 PM 44.1 °F 36.8 °F 36.0 °F 73% 29.53 in 10.0 mi WSW 16.1 mph 27.6 mph N/A   Overcast
5:53 PM 43.0 °F 36.4 °F 37.0 °F 80% 29.56 in 10.0 mi SW 12.7 mph 24.2 mph N/A   Overcast
6:08 PM 43.0 °F 36.8 °F 37.0 °F 80% 29.55 in 10.0 mi WSW 11.5 mph 23.0 mph N/A   Overcast
6:21 PM 43.0 °F 36.0 °F 37.0 °F 80% 29.55 in 10.0 mi WSW 13.8 mph 27.6 mph N/A   Overcast
6:50 PM 42.8 °F - 37.4 °F 81% 29.56 in 10.0 mi North - - N/A   Overcast
6:53 PM 43.0 °F 34.8 °F 37.0 °F 80% 29.58 in 10.0 mi West 18.4 mph 28.8 mph N/A   Overcast
7:01 PM 43.0 °F 35.1 °F 37.0 °F 80% 29.57 in 10.0 mi WSW 17.3 mph 28.8 mph N/A   Overcast
7:15 PM 43.0 °F 36.8 °F 36.0 °F 76% 29.57 in 10.0 mi WSW 11.5 mph 24.2 mph N/A   Overcast
7:53 PM 44.1 °F 37.4 °F 36.0 °F 73% 29.60 in 10.0 mi WSW 13.8 mph 23.0 mph N/A   Overcast
8:53 PM 44.1 °F 38.1 °F 36.0 °F 73% 29.61 in 10.0 mi WSW 11.5 mph 21.9 mph 0.00 in   Overcast
9:53 PM 44.1 °F 40.1 °F 35.1 °F 71% 29.63 in 10.0 mi Variable 6.9 mph 21.9 mph N/A   Overcast
10:53 PM 44.1 °F 38.6 °F 36.0 °F 73% 29.64 in 10.0 mi WSW 10.4 mph 21.9 mph N/A   Overcast
11:53 PM 44.1 °F 40.8 °F 37.0 °F 76% 29.64 in 10.0 mi Variable 5.8 mph - N/A   Overcast